Location: Newark
(48.5667°N, 7.8167°E)
Time: 21:32:33
(UTC+00:00)

ISS - Pass Details

Date: 21 September 2021
Orbit: 417 x 423 km, 51.6° (Epoch: 17 October)

Event Time Altitude Azimuth Distance (km) Brightness Sun altitude
Rises 17:58:56 0° 234° (SW) 2,353 0.9 -5.8°
Reaches altitude 10° 18:01:02 10° 231° (SW) 1,493 -0.3 -6.2°
Maximum altitude 18:04:19 57° 152° (SSE) 500 -3.6 -6.7°
Drops below altitude 10° 18:07:38 10° 73° (ENE) 1,503 -1.5 -7.3°
Enters shadow 18:08:08 - 71° (ENE) 1,702 -1.2 -7.4°
